STARLINK-34484

Last updated on Thu Jul 03 2025 00:02:06 GMT+0000 (Coordinated Universal Time)

1 64366U 25126Y 25183.58335648 -.01409524 00000+0 -17038-1 0 9998 2 64366 69.9993 310.1860 0003227 265.9012 341.1538 15.63225930 4320
UTC large
Height (km)
Speed (km/s)
/
Latitude / Longitude
Inclination (degrees)
Orbital Period (minutes)
Azimuth
Elevation
Range (km)
Doppler Factor

Next 0 passes for location: London (51.5072 / 0.1276)

Sorry there are no passes over London.